CYZV

Sept-Iles Airport

ICAO Code CYZV
IATA Code YZV
Name Sept-Iles Airport
Location Sept-Iles, Quebec, CA
Elevation 180 Feet / 54.9 Meters
Latitude 50.22333333
Longitude -66.26555556
METAR CYZV 182200Z 06010KT 10SM FEW003 BKN023 OVC036 17/16 A2984 RMK SF1SC7SC1 SF TR SLP108 DENSITY ALT 600FT
Extra information Display NOTAMS
Display Charts
Runway Length Width Surface Elevation
09 6552 ft 150 ft ASP 164 ft
13 5771 ft 200 ft ASP 170 ft
27 6552 ft 150 ft ASP 174 ft
31 5771 ft 200 ft ASP 174 ft

Mandatory Routes

Sept-Iles Airport

Direction Destination Level Remark Type Route
ARR FR W H RNAV KESLU Q910 YBC J555 YZV
ARR FR W L RNAV KESLU T603 YBC V360 YZV
DEP TO SW H&L A120 & ABV RNAV MIVAX
DEP TO SW L A100 & BLW YZV V316 MIVAX
DEP TO CYBC L RNAV YZV V316 YBC
DEP TO CYBG L RNAV YZV V316 YBC KAVMU
DEP TO CYRC L RNAV YZV V316 YBC KAVMU